Time,TemperatureF,DewpointF,PressureIn,WindDirection,WindDirectionDegrees,WindSpeedMPH,WindSpeedGustMPH,Humidity,HourlyPrecipIn,Conditions,Clouds,dailyrainin,SoftwareType,DateUTC
2013-03-24 00:05:00,70.0,20.0,32.28,SSW,201,0.0,0.0,15,0.00,,,0.00,weatherlink.com 1.10,2013-03-24 06:05:00,
2013-03-24 00:20:00,70.1,20.0,32.28,SSW,200,0.0,0.0,15,0.00,,,0.00,weatherlink.com 1.10,2013-03-24 06:20:00,
2013-03-24 00:35:00,70.1,20.0,32.28,SSW,201,0.0,0.0,15,0.00,,,0.00,weatherlink.com 1.10,2013-03-24 06:35:00,
2013-03-24 00:50:00,70.2,22.0,32.28,SSW,201,0.0,0.0,16,0.00,,,0.00,weatherlink.com 1.10,2013-03-24 06:50:00,
2013-03-24 01:05:00,70.3,22.0,32.28,SSW,201,0.0,0.0,16,0.00,,,0.00,weatherlink.com 1.10,2013-03-24 07:05:00,
2013-03-24 01:20:00,70.4,22.0,32.28,SSW,201,0.0,0.0,16,0.00,,,0.00,weatherlink.com 1.10,2013-03-24 07:20:00,
2013-03-24 01:35:00,70.4,22.0,32.28,SSW,201,0.0,0.0,16,0.00,,,0.00,weatherlink.com 1.10,2013-03-24 07:35:00,
2013-03-24 01:50:00,70.5,22.0,32.28,SSW,200,0.0,0.0,16,0.00,,,0.00,weatherlink.com 1.10,2013-03-24 07:50:00,
2013-03-24 02:05:00,70.5,22.0,32.27,SSW,201,0.0,0.0,16,0.00,,,0.00,weatherlink.com 1.10,2013-03-24 08:05:00,
2013-03-24 02:20:00,70.4,22.0,32.27,SSW,200,0.0,0.0,16,0.00,,,0.00,weatherlink.com 1.10,2013-03-24 08:20:00,
2013-03-24 02:35:00,70.3,22.0,32.27,SSW,201,0.0,0.0,16,0.00,,,0.00,weatherlink.com 1.10,2013-03-24 08:35:00,
2013-03-24 02:50:00,70.2,23.0,32.27,SSW,201,0.0,0.0,17,0.00,,,0.00,weatherlink.com 1.10,2013-03-24 08:50:00,
2013-03-24 03:05:00,70.1,23.0,32.27,SSW,200,0.0,0.0,17,0.00,,,0.00,weatherlink.com 1.10,2013-03-24 09:05:00,
2013-03-24 03:20:00,70.1,23.0,32.27,SSW,201,0.0,0.0,17,0.00,,,0.00,weatherlink.com 1.10,2013-03-24 09:20:00,
2013-03-24 03:35:00,70.0,23.0,32.27,SSW,200,0.0,0.0,17,0.00,,,0.00,weatherlink.com 1.10,2013-03-24 09:35:00,
2013-03-24 03:50:00,69.9,23.0,32.27,SSW,201,0.0,0.0,17,0.00,,,0.00,weatherlink.com 1.10,2013-03-24 09:50:00,
2013-03-24 04:06:00,69.7,23.0,32.26,SSW,201,0.0,0.0,17,0.00,,,0.00,weatherlink.com 1.10,2013-03-24 10:06:00,
2013-03-24 04:35:00,69.6,23.0,32.26,SSW,201,0.0,0.0,17,0.00,,,0.00,weatherlink.com 1.10,2013-03-24 10:35:00,
2013-03-24 04:50:00,69.4,23.0,32.26,SSW,201,0.0,0.0,17,0.00,,,0.00,weatherlink.com 1.10,2013-03-24 10:50:00,
2013-03-24 05:05:00,69.3,24.0,32.26,SSW,201,0.0,0.0,18,0.00,,,0.00,weatherlink.com 1.10,2013-03-24 11:05:00,
2013-03-24 05:20:00,69.2,24.0,32.26,SSW,200,0.0,0.0,18,0.00,,,0.00,weatherlink.com 1.10,2013-03-24 11:20:00,
2013-03-24 05:35:00,69.1,24.0,32.27,SSW,201,0.0,0.0,18,0.00,,,0.00,weatherlink.com 1.10,2013-03-24 11:35:00,
2013-03-24 05:50:00,68.9,24.0,32.27,SSW,201,0.0,0.0,18,0.00,,,0.00,weatherlink.com 1.10,2013-03-24 11:50:00,
2013-03-24 06:05:00,68.8,23.0,32.27,SSW,201,0.0,0.0,18,0.00,,,0.00,weatherlink.com 1.10,2013-03-24 12:05:00,
2013-03-24 06:20:00,68.7,23.0,32.28,SSW,201,0.0,0.0,18,0.00,,,0.00,weatherlink.com 1.10,2013-03-24 12:20:00,
2013-03-24 06:35:00,68.4,22.0,32.28,SSW,201,0.0,0.0,17,0.00,,,0.00,weatherlink.com 1.10,2013-03-24 12:35:00,
2013-03-24 06:50:00,68.1,23.0,32.28,SSW,201,0.0,0.0,18,0.00,,,0.00,weatherlink.com 1.10,2013-03-24 12:50:00,
2013-03-24 07:05:00,68.0,23.0,32.28,SSW,201,0.0,0.0,18,0.00,,,0.00,weatherlink.com 1.10,2013-03-24 13:05:00,
2013-03-24 07:20:00,68.2,22.0,32.28,SSW,201,0.0,0.0,17,0.00,,,0.00,weatherlink.com 1.10,2013-03-24 13:20:00,
2013-03-24 07:35:00,68.6,23.0,32.28,SSW,201,0.0,0.0,18,0.00,,,0.00,weatherlink.com 1.10,2013-03-24 13:35:00,
2013-03-24 07:50:00,69.3,24.0,32.28,NE,44,0.0,0.0,18,0.00,,,0.00,weatherlink.com 1.10,2013-03-24 13:50:00,
2013-03-24 08:05:00,69.9,27.0,32.29,NNE,30,0.0,0.0,20,0.00,,,0.00,weatherlink.com 1.10,2013-03-24 14:05:00,
2013-03-24 08:20:00,70.6,28.0,32.29,NNE,30,0.0,0.0,20,0.00,,,0.00,weatherlink.com 1.10,2013-03-24 14:20:00,
2013-03-24 08:35:00,71.2,28.0,32.29,NNE,30,0.0,0.0,20,0.00,,,0.00,weatherlink.com 1.10,2013-03-24 14:35:00,
2013-03-24 08:50:00,71.8,27.0,32.30,NNE,30,0.0,0.0,19,0.00,,,0.00,weatherlink.com 1.10,2013-03-24 14:50:00,
2013-03-24 09:05:00,72.3,26.0,32.30,NNE,30,0.0,0.0,18,0.00,,,0.00,weatherlink.com 1.10,2013-03-24 15:05:00,
2013-03-24 09:20:00,72.8,29.0,32.31,NNE,30,0.0,0.0,20,0.00,,,0.00,weatherlink.com 1.10,2013-03-24 15:20:00,
2013-03-24 09:36:00,73.3,29.0,32.31,NNE,30,0.0,0.0,19,0.00,,,0.00,weatherlink.com 1.10,2013-03-24 15:36:00,
2013-03-24 09:51:00,73.3,23.0,32.41,NNE,30,0.0,0.0,15,0.00,,,0.00,weatherlink.com 1.10,2013-03-24 15:51:00,
2013-03-24 10:06:00,72.9,21.0,32.31,NNE,28,0.0,0.0,14,0.00,,,0.00,weatherlink.com 1.10,2013-03-24 16:06:00,
2013-03-24 10:21:00,72.4,20.0,32.49,NNE,29,0.0,0.0,14,0.00,,,0.00,weatherlink.com 1.10,2013-03-24 16:21:00,
2013-03-24 10:36:00,72.2,20.0,32.49,NNE,28,0.0,0.0,14,0.00,,,0.00,weatherlink.com 1.10,2013-03-24 16:36:00,
2013-03-24 11:38:00,73.5,20.0,0.00,NNE,29,0.0,0.0,13,0.00,,,0.00,weatherlink.com 1.10,2013-03-24 17:38:00,
2013-03-24 11:51:00,74.0,18.0,31.28,NNE,29,0.0,0.0,12,0.00,,,0.00,weatherlink.com 1.10,2013-03-24 17:51:00,
2013-03-24 12:06:00,74.4,20.0,30.67,NNE,28,0.0,0.0,13,0.00,,,0.00,weatherlink.com 1.10,2013-03-24 18:06:00,
2013-03-24 12:36:00,74.8,19.0,31.29,NNE,28,0.0,0.0,12,0.00,,,0.00,weatherlink.com 1.10,2013-03-24 18:36:00,
2013-03-24 12:51:00,75.0,21.0,31.28,NNE,28,0.0,0.0,13,0.00,,,0.00,weatherlink.com 1.10,2013-03-24 18:51:00,
2013-03-24 13:06:00,74.5,6.0,31.28,SE,127,4.0,5.0,7,0.01,,,0.01,weatherlink.com 1.10,2013-03-24 19:06:00,
2013-03-24 13:21:00,66.3,3.0,31.27,ENE,77,5.0,6.0,8,0.01,,,0.01,weatherlink.com 1.10,2013-03-24 19:21:00,
2013-03-24 13:36:00,66.2,3.0,31.26,NNE,15,2.0,5.0,8,0.01,,,0.01,weatherlink.com 1.10,2013-03-24 19:36:00,
2013-03-24 14:06:00,68.1,4.0,31.24,West,279,0.0,4.0,8,0.00,,,0.01,weatherlink.com 1.10,2013-03-24 20:06:00,
2013-03-24 14:21:00,69.1,2.0,31.23,ESE,109,4.0,8.0,7,0.00,,,0.01,weatherlink.com 1.10,2013-03-24 20:21:00,
2013-03-24 14:36:00,68.4,2.0,31.23,NNE,33,7.0,8.0,7,0.00,,,0.01,weatherlink.com 1.10,2013-03-24 20:36:00,
2013-03-24 14:51:00,68.4,2.0,31.22,North,355,2.0,7.0,7,0.00,,,0.01,weatherlink.com 1.10,2013-03-24 20:51:00,
2013-03-24 15:06:00,68.7,2.0,31.20,ESE,121,0.0,6.0,7,0.00,,,0.01,weatherlink.com 1.10,2013-03-24 21:06:00,
2013-03-24 15:21:00,69.9,6.0,31.20,WSW,245,0.0,6.0,8,0.00,,,0.01,weatherlink.com 1.10,2013-03-24 21:21:00,
2013-03-24 15:36:00,70.4,3.0,31.19,South,169,5.0,8.0,7,0.00,,,0.01,weatherlink.com 1.10,2013-03-24 21:36:00,
2013-03-24 15:52:00,70.2,6.0,31.18,ESE,107,5.0,6.0,8,0.00,,,0.01,weatherlink.com 1.10,2013-03-24 21:52:00,
2013-03-24 16:07:00,70.6,6.0,31.17,East,87,3.0,7.0,8,0.00,,,0.01,weatherlink.com 1.10,2013-03-24 22:07:00,
2013-03-24 16:22:00,70.2,6.0,31.17,NNE,16,1.0,5.0,8,0.00,,,0.01,weatherlink.com 1.10,2013-03-24 22:22:00,
2013-03-24 16:37:00,70.9,9.0,31.16,ENE,60,3.0,7.0,9,0.00,,,0.01,weatherlink.com 1.10,2013-03-24 22:37:00,
2013-03-24 16:52:00,70.6,6.0,31.16,ENE,76,1.0,6.0,8,0.00,,,0.01,weatherlink.com 1.10,2013-03-24 22:52:00,
2013-03-24 17:07:00,71.8,7.0,31.15,SW,222,1.0,7.0,8,0.00,,,0.01,weatherlink.com 1.10,2013-03-24 23:07:00,
2013-03-24 17:22:00,73.4,8.0,31.15,NNW,332,2.0,3.0,8,0.00,,,0.01,weatherlink.com 1.10,2013-03-24 23:22:00,
2013-03-24 17:37:00,72.2,10.0,31.14,ESE,118,3.0,6.0,9,0.00,,,0.01,weatherlink.com 1.10,2013-03-24 23:37:00,
2013-03-24 17:52:00,71.4,9.0,31.14,NE,41,3.0,7.0,9,0.00,,,0.01,weatherlink.com 1.10,2013-03-24 23:52:00,
2013-03-24 18:07:00,70.7,9.0,31.13,East,92,5.0,7.0,9,0.00,,,0.01,weatherlink.com 1.10,2013-03-25 00:07:00,
2013-03-24 18:22:00,70.6,9.0,31.13,SSE,158,4.0,7.0,9,0.00,,,0.01,weatherlink.com 1.10,2013-03-25 00:22:00,
2013-03-24 18:37:00,70.8,9.0,31.12,ESE,122,8.0,8.0,9,0.00,,,0.01,weatherlink.com 1.10,2013-03-25 00:37:00,
2013-03-24 18:52:00,69.9,11.0,31.12,ENE,65,5.0,8.0,10,0.00,,,0.01,weatherlink.com 1.10,2013-03-25 00:52:00,
2013-03-24 19:07:00,69.7,8.0,31.12,East,82,4.0,6.0,9,0.00,,,0.01,weatherlink.com 1.10,2013-03-25 01:07:00,
2013-03-24 19:22:00,69.2,10.0,31.12,ESE,114,7.0,7.0,10,0.00,,,0.01,weatherlink.com 1.10,2013-03-25 01:22:00,
2013-03-24 19:38:00,68.5,12.0,31.12,ENE,75,1.0,5.0,11,0.00,,,0.01,weatherlink.com 1.10,2013-03-25 01:38:00,
2013-03-24 19:53:00,67.3,11.0,31.12,East,98,3.0,6.0,11,0.00,,,0.01,weatherlink.com 1.10,2013-03-25 01:53:00,
2013-03-24 20:08:00,66.5,12.0,31.12,East,83,2.0,3.0,12,0.00,,,0.01,weatherlink.com 1.10,2013-03-25 02:08:00,
2013-03-24 20:23:00,65.7,13.0,31.12,East,94,3.0,4.0,13,0.00,,,0.01,weatherlink.com 1.10,2013-03-25 02:23:00,
2013-03-24 20:38:00,64.8,13.0,31.12,East,95,0.0,2.0,13,0.00,,,0.01,weatherlink.com 1.10,2013-03-25 02:38:00,
2013-03-24 20:53:00,64.0,14.0,31.12,East,94,0.0,1.0,14,0.00,,,0.01,weatherlink.com 1.10,2013-03-25 02:53:00,
2013-03-24 21:08:00,63.4,13.0,31.13,East,94,0.0,1.0,14,0.00,,,0.01,weatherlink.com 1.10,2013-03-25 03:08:00,
2013-03-24 21:23:00,63.2,13.0,31.13,East,95,0.0,1.0,14,0.00,,,0.01,weatherlink.com 1.10,2013-03-25 03:23:00,
2013-03-24 21:38:00,62.8,13.0,31.14,East,94,0.0,0.0,14,0.00,,,0.01,weatherlink.com 1.10,2013-03-25 03:38:00,
2013-03-24 21:53:00,62.3,14.0,31.14,East,95,0.0,1.0,15,0.00,,,0.01,weatherlink.com 1.10,2013-03-25 03:53:00,
2013-03-24 22:08:00,61.7,13.0,31.14,East,94,0.0,1.0,15,0.00,,,0.01,weatherlink.com 1.10,2013-03-25 04:08:00,
2013-03-24 22:23:00,60.8,14.0,31.14,East,95,0.0,0.0,16,0.00,,,0.01,weatherlink.com 1.10,2013-03-25 04:23:00,
2013-03-24 22:38:00,60.6,17.0,31.15,SSE,155,0.0,1.0,18,0.00,,,0.01,weatherlink.com 1.10,2013-03-25 04:38:00,
2013-03-24 22:53:00,60.0,16.0,31.16,SW,228,0.0,1.0,18,0.00,,,0.01,weatherlink.com 1.10,2013-03-25 04:53:00,
2013-03-24 23:09:00,59.3,17.0,31.16,SW,228,0.0,1.0,19,0.00,,,0.01,weatherlink.com 1.10,2013-03-25 05:09:00,
2013-03-24 23:24:00,58.6,16.0,31.16,SW,230,1.0,1.0,19,0.00,,,0.01,weatherlink.com 1.10,2013-03-25 05:24:00,
2013-03-24 23:39:00,57.7,17.0,31.16,SW,231,0.0,0.0,20,0.00,,,0.01,weatherlink.com 1.10,2013-03-25 05:39:00,
2013-03-24 23:54:00,56.7,18.0,31.16,SW,229,0.0,1.0,22,0.00,,,0.01,weatherlink.com 1.10,2013-03-25 05:54:00,